Regional Weather Roundup
Issued by NWS

Home | Current Version | Previous Version | Text Only | Print | Product List | Glossary Off
Versions: 1 2 3 4 5 6 7 8 9 10 11 12 13 14 15 16 17 18 19 20 21 22 23 24 25 26 27 28 29 30 31 32 33 34 35 36 37 38 39 40 41 42 43 44 45 46 47 48 49 50

485
ASUS43 KFSD 111102
RWRSD

WEATHER ROUNDUP FOR SOUTH DAKOTA
NATIONAL WEATHER SERVICE SIOUX FALLS SD
500 AM CST THU FEB 11 2016

NOTE: "FAIR" INDICATES FEW OR NO CLOUDS BELOW 12,000 FEET WITH NO
SIGNIFICANT WEATHER AND/OR OBSTRUCTIONS TO VISIBILITY.


SDZ001>005-009-010-012>017-111200-
NORTHWEST AND NORTH CENTRAL SOUTH DAKOTA

CITY           SKY/WX    TMP DP  RH WIND       PRES   REMARKS
BUFFALO          N/A     32  28  85 SW14      29.94F WCI  22
FAITH            N/A     28  25  88 S8        30.06F WCI  20
MOBRIDGE       CLOUDY    19  15  84 SE8       30.11F WCI   9
$$

SDZ012>016-024>037-041>051-057-063-072>074-111200-
SOUTHWEST AND SOUTH CENTRAL SOUTH DAKOTA

CITY           SKY/WX    TMP DP  RH WIND       PRES   REMARKS
RAPID CTY ARPT CLOUDY    28  27  96 SE9       30.01F FOG     WCI  19
PIERRE         CLOUDY    21  19  92 SE7       30.15F WCI  12
CUSTER         CLOUDY    37  21  52 S7        30.00F
ELLSWORTH AFB  CLOUDY    27  27 100 S8        29.99F WCI  19
PHILIP         CLOUDY    30  27  88 SE5       30.10F WCI  25
PINE RIDGE     CLOUDY    23  20  88 CALM      30.05F
WINNER         CLOUDY    26  22  84 E7        30.15S WCI  18
$$

SDZ004>011-016>023-039-040-111200-
NORTHEAST SOUTH DAKOTA

CITY           SKY/WX    TMP DP  RH WIND       PRES   REMARKS
ABERDEEN       CLOUDY    15   9  76 CALM      30.23F
WATERTOWN      CLOUDY    11   5  77 S6        30.20F WCI   1
BROOKINGS      CLOUDY    11   6  81 SE5       30.22F WCI   3
SISSETON         N/A      5   2  87 W3        30.26S
$$

SDZ017-020-022-023-036>040-048>070-111200-
SOUTHEAST SOUTH DAKOTA

CITY           SKY/WX    TMP DP  RH WIND       PRES   REMARKS
SIOUX FALLS    CLOUDY    13   5  70 E5        30.25S WCI   5
HURON          CLOUDY    16  11  80 S6        30.24S WCI   7
CHAMBERLAIN    CLOUDY    22  19  90 SE5       30.18F WCI  16
MITCHELL       CLOUDY    18  13  80 SE8       30.24F WCI   8
YANKTON        CLOUDY    16   9  73 E6        30.27R WCI   7
$$

ABBREVIATIONS USED IN REMARKS
   TC - TEMPERATURE IN CELSIUS
  WCI - WIND CHILL INDEX
   HX - HEAT INDEX
  VSB - VISIBILITY





USA.gov is the U.S. government's official web portal to all federal, state and local government web resources and services.